TimeEDT,TemperatureF,Dew PointF,Humidity,Sea Level PressureIn,VisibilityMPH,Wind Direction,Wind SpeedMPH,Gust SpeedMPH,PrecipitationIn,Events,Conditions,WindDirDegrees,DateUTC
12:53 AM,36.0,21.9,57,30.27,10.0,ENE,3.5,-,N/A,,Overcast,60,2013-03-18 04:53:00
1:53 AM,36.0,21.0,55,30.27,10.0,East,4.6,-,N/A,,Overcast,90,2013-03-18 05:53:00
2:53 AM,36.0,21.0,55,30.27,10.0,East,6.9,-,N/A,,Overcast,100,2013-03-18 06:53:00
3:53 AM,36.0,21.0,55,30.26,10.0,East,3.5,-,N/A,,Overcast,100,2013-03-18 07:53:00
4:53 AM,36.0,19.9,52,30.27,10.0,ESE,4.6,-,N/A,,Overcast,110,2013-03-18 08:53:00
5:53 AM,35.1,21.0,57,30.29,5.0,SE,4.6,-,0.00,Snow,Light Snow,140,2013-03-18 09:53:00
6:05 AM,33.8,23.0,65,30.28,4.0,ESE,5.8,16.1,0.00,Snow,Light Snow,110,2013-03-18 10:05:00
6:31 AM,32.0,24.8,75,30.29,2.5,East,4.6,-,0.00,Snow,Light Snow,100,2013-03-18 10:31:00
6:49 AM,30.2,26.6,86,30.29,1.2,ESE,3.5,-,0.00,Snow,Light Snow,120,2013-03-18 10:49:00
7:12 AM,30.2,28.4,93,30.30,0.8,Calm,Calm,-,0.01,Snow,Light Snow,0,2013-03-18 11:12:00
7:19 AM,30.2,28.4,93,30.29,1.0,SSE,3.5,-,0.02,Snow,Light Snow,150,2013-03-18 11:19:00
7:48 AM,30.2,28.4,93,30.29,1.0,SE,3.5,-,0.02,Snow,Light Snow,130,2013-03-18 11:48:00
7:53 AM,30.9,28.0,89,30.31,1.0,SE,5.8,-,0.03,Snow,Light Snow,140,2013-03-18 11:53:00
8:00 AM,30.2,28.4,93,30.29,0.8,SE,4.6,-,0.00,Snow,Light Snow,140,2013-03-18 12:00:00
8:21 AM,30.2,28.4,93,30.28,1.0,SE,5.8,-,0.01,Snow,Light Snow,130,2013-03-18 12:21:00
8:53 AM,30.9,27.0,85,30.29,3.0,SE,4.6,-,0.01,,Overcast,130,2013-03-18 12:53:00
9:29 AM,30.2,26.6,86,30.27,5.0,ESE,3.5,-,N/A,,Overcast,120,2013-03-18 13:29:00
9:32 AM,30.2,26.6,86,30.27,5.0,SE,4.6,-,N/A,,Overcast,130,2013-03-18 13:32:00
9:44 AM,30.2,26.6,86,30.26,8.0,ESE,6.9,-,N/A,,Overcast,120,2013-03-18 13:44:00
9:53 AM,30.9,26.1,82,30.27,10.0,SE,5.8,-,N/A,,Overcast,130,2013-03-18 13:53:00
10:03 AM,30.2,26.6,86,30.26,10.0,SE,8.1,-,N/A,,Overcast,130,2013-03-18 14:03:00
10:33 AM,30.2,24.8,80,30.24,10.0,ESE,8.1,-,N/A,,Overcast,120,2013-03-18 14:33:00
10:53 AM,32.0,25.0,75,30.24,10.0,SE,8.1,-,N/A,,Overcast,130,2013-03-18 14:53:00
11:30 AM,32.0,24.8,75,30.22,10.0,SSE,6.9,-,N/A,,Overcast,160,2013-03-18 15:30:00
11:53 AM,32.0,26.1,79,30.23,10.0,ESE,5.8,-,N/A,,Overcast,120,2013-03-18 15:53:00
12:38 PM,32.0,26.6,80,30.20,7.0,SSE,8.1,-,N/A,,Overcast,150,2013-03-18 16:38:00
12:53 PM,33.1,28.0,82,30.20,8.0,SE,4.6,-,N/A,,Overcast,140,2013-03-18 16:53:00
1:29 PM,32.0,28.4,87,30.16,3.0,SE,5.8,-,N/A,,Overcast,140,2013-03-18 17:29:00
1:34 PM,32.0,28.4,87,30.16,2.5,ESE,3.5,-,N/A,,Overcast,120,2013-03-18 17:34:00
1:46 PM,32.0,28.4,87,30.15,1.8,East,4.6,-,N/A,,Overcast,100,2013-03-18 17:46:00
1:53 PM,32.0,28.9,88,30.16,1.8,Calm,Calm,-,N/A,,Overcast,0,2013-03-18 17:53:00
2:51 PM,32.0,30.2,93,30.10,1.5,Calm,Calm,-,0.01,Rain,Light Freezing Rain,0,2013-03-18 18:51:00
2:53 PM,32.0,30.0,92,30.12,1.5,Calm,Calm,-,0.01,Rain,Light Freezing Rain,0,2013-03-18 18:53:00
3:53 PM,33.1,30.9,92,30.09,1.0,Calm,Calm,-,0.07,Rain,Rain,0,2013-03-18 19:53:00
4:43 PM,33.8,30.2,87,30.06,1.8,Calm,Calm,-,0.06,Rain,Light Rain,0,2013-03-18 20:43:00
4:53 PM,33.1,30.9,92,30.08,1.2,Calm,Calm,-,0.07,Snow,Light Snow,0,2013-03-18 20:53:00
5:18 PM,33.8,30.2,87,30.05,0.8,Calm,Calm,-,0.02,Snow,Light Snow,0,2013-03-18 21:18:00
5:28 PM,33.8,30.2,87,30.05,1.0,Calm,Calm,-,0.03,Snow,Light Snow,0,2013-03-18 21:28:00
5:40 PM,33.8,30.2,87,30.04,1.8,Calm,Calm,-,0.04,Snow,Light Snow,0,2013-03-18 21:40:00
5:53 PM,33.1,30.0,89,30.04,1.8,Calm,Calm,-,0.05,Snow,Light Snow,0,2013-03-18 21:53:00
6:22 PM,33.8,30.2,87,30.01,2.5,Calm,Calm,-,0.02,Rain,Light Rain,0,2013-03-18 22:22:00
6:24 PM,33.8,30.2,87,30.01,3.0,Calm,Calm,-,0.03,Rain,Light Rain,0,2013-03-18 22:24:00
6:53 PM,33.1,30.0,89,30.01,3.0,Calm,Calm,-,0.04,Rain,Light Rain,0,2013-03-18 22:53:00
7:48 PM,33.8,30.2,87,29.98,4.0,NNE,3.5,-,0.02,,Overcast,20,2013-03-18 23:48:00
7:53 PM,33.1,30.9,92,30.00,3.0,NNE,3.5,-,0.02,,Overcast,20,2013-03-18 23:53:00
8:53 PM,33.1,30.9,92,29.99,3.0,NE,3.5,-,0.01,Rain,Light Rain,50,2013-03-19 00:53:00
9:08 PM,33.8,30.2,87,29.96,2.5,NE,4.6,-,0.00,Rain,Light Rain,50,2013-03-19 01:08:00
9:18 PM,33.8,30.2,87,29.95,3.0,NNE,5.8,-,0.00,Rain,Light Rain,30,2013-03-19 01:18:00
9:45 PM,33.8,30.2,87,29.93,2.5,NE,3.5,-,0.01,,Overcast,50,2013-03-19 01:45:00
9:53 PM,33.1,30.9,92,29.95,2.5,NE,3.5,-,0.01,,Overcast,40,2013-03-19 01:53:00
10:22 PM,33.8,30.2,87,29.93,3.0,NNE,3.5,-,N/A,,Overcast,20,2013-03-19 02:22:00
10:41 PM,33.8,30.2,87,29.90,3.0,East,4.6,-,N/A,,Overcast,80,2013-03-19 02:41:00
10:53 PM,33.1,30.9,92,29.92,3.0,ENE,3.5,-,N/A,,Overcast,60,2013-03-19 02:53:00
10:56 PM,33.8,30.2,87,29.91,2.5,Calm,Calm,-,N/A,,Overcast,0,2013-03-19 02:56:00
11:17 PM,33.8,30.2,87,29.90,2.0,Calm,Calm,-,N/A,,Overcast,0,2013-03-19 03:17:00
11:26 PM,33.8,30.2,87,29.90,1.8,NNW,3.5,-,N/A,,Overcast,330,2013-03-19 03:26:00
11:53 PM,33.1,30.9,92,29.90,1.2,Calm,Calm,-,N/A,,Overcast,0,2013-03-19 03:53:00